1534615201.19,59587,22.44,74710.8,6.67,-10.89,-13.43,0,*79
1534615202.4,59588,22.38,74710.8,6.69,-10.85,-13.47,0,*70
1534615203.61,59589,22.44,74712.0,6.67,-10.97,-13.51,0,*7B
1534615204.82,59590,22.44,74712.3,6.67,-10.89,-13.51,0,*7C
1534615206.02,59591,22.38,74708.5,6.67,-10.97,-13.51,0,*72
1534615207.23,59592,22.44,74714.0,6.67,-10.89,-13.51,0,*7E
1534615208.43,59593,22.44,74716.0,6.67,-10.97,-13.65,0,*77
1534615209.64,59594,22.38,74714.0,6.67,-10.97,-13.55,0,*73
1534615210.85,59595,22.38,74712.3,6.67,-10.97,-13.65,0,*71
1534615212.06,59596,22.44,74712.8,6.67,-10.97,-13.55,0,*71
1534615213.28,59597,22.44,74718.8,6.69,-10.85,-13.51,0,*79
1534615214.48,59598,22.38,74712.5,6.67,-10.89,-13.55,0,*70
1534615215.69,59599,22.38,74712.0,6.69,-10.85,-13.47,0,*70
1534615216.89,59600,22.44,74716.5,6.67,-10.89,-13.43,0,*75
1534615218.11,59601,22.38,74712.8,6.65,-10.93,-13.47,0,*79
1534615219.32,59602,22.38,74712.3,6.67,-10.97,-13.51,0,*7B
1534615220.53,59603,22.38,74712.8,6.69,-10.85,-13.47,0,*70
1534615221.73,59604,22.38,74710.0,6.67,-10.89,-13.55,0,*76
1534615222.96,59605,22.38,74712.8,6.65,-10.93,-13.55,0,*7E
1534615224.17,59606,22.44,74712.3,6.67,-10.97,-13.55,0,*7B
1534615225.37,59607,22.38,74714.5,6.67,-10.97,-13.55,0,*7A
1534615226.58,59608,22.38,74714.0,6.67,-10.97,-13.55,0,*75
1534615227.83,59609,22.44,74714.8,6.65,-11.07,-13.69,0,*71
1534615229.08,59610,22.38,74714.5,6.65,-11.07,-13.69,0,*79
1534615230.3,59611,22.44,74716.8,6.65,-11.01,-13.55,0,*71
1534615231.52,59612,22.44,74714.8,6.65,-10.89,-13.55,0,*73
1534615232.75,59613,22.44,74716.0,6.65,-11.01,-13.55,0,*73
1534615233.98,59614,22.38,74712.8,6.63,-11.01,-13.61,0,*75
1534615235.18,59615,22.44,74712.0,6.63,-11.01,-13.73,0,*77
1534615236.41,59616,22.38,74712.0,6.65,-11.01,-13.73,0,*72
1534615237.63,59617,22.44,74714.8,6.65,-11.11,-13.73,0,*72
1534615238.85,59618,22.38,74710.3,6.65,-11.11,-13.73,0,*7D
1534615240.07,59619,22.44,74712.0,6.63,-11.07,-13.69,0,*76
1534615241.3,59620,22.38,74710.5,6.63,-11.07,-13.69,0,*7C
1534615242.49,59621,22.44,74714.5,6.63,-11.11,-13.73,0,*71
1534615243.69,59622,22.44,74712.8,6.63,-11.11,-13.73,0,*72
1534615244.88,59623,22.38,74712.0,6.63,-11.19,-13.73,0,*7B
1534615246.1,59624,22.44,74716.5,6.63,-11.11,-13.79,0,*7E
1534615247.29,59625,22.38,74718.3,6.63,-11.11,-13.69,0,*7E
1534615248.52,59626,22.38,74718.8,6.63,-11.07,-13.69,0,*7A
1534615249.74,59627,22.38,74716.3,6.63,-11.07,-13.69,0,*7B
1534615250.96,59628,22.38,74712.5,6.63,-11.07,-13.69,0,*74
1534615252.16,59629,22.38,74712.5,6.63,-11.11,-13.69,0,*72
1534615253.35,59630,22.38,74714.3,6.63,-11.11,-13.73,0,*71
1534615254.6,59631,22.38,74712.8,6.61,-11.23,-13.79,0,*79
1534615255.85,59632,22.38,74710.5,6.61,-11.23,-13.83,0,*7F
1534615257.1,59633,22.38,74708.8,6.61,-11.23,-13.83,0,*7E
1534615258.34,59634,22.38,74710.8,6.61,-11.15,-13.79,0,*79
1534615259.56,59635,22.38,74708.3,6.61,-11.11,-13.73,0,*76
1534615260.76,59636,22.38,74706.0,6.59,-11.15,-13.65,0,*7D
1534615261.96,59637,22.38,74708.3,6.59,-11.15,-13.73,0,*7B
1534615263.21,59638,22.44,74712.0,6.61,-11.15,-13.79,0,*75
1534615264.41,59639,22.38,74710.0,6.59,-11.15,-13.73,0,*75
1534615265.63,59640,22.44,74716.8,6.61,-11.11,-13.65,0,*73
1534615266.83,59641,22.38,74716.3,6.59,-11.15,-13.65,0,*7D
1534615268.08,59642,22.38,74718.8,6.61,-11.11,-13.61,0,*75
1534615269.31,59643,22.38,74716.5,6.61,-11.11,-13.65,0,*70
1534615270.55,59644,22.44,74714.3,6.61,-11.11,-13.79,0,*7A
1534615271.77,59645,22.38,74712.5,6.59,-11.15,-13.79,0,*74
1534615272.97,59646,22.38,74718.8,6.59,-11.15,-13.73,0,*7D
1534615274.17,59647,22.38,74716.3,6.59,-11.11,-13.73,0,*78
1534615275.4,59648,22.38,74718.0,6.59,-11.11,-13.61,0,*74
1534615276.6,59649,22.38,74712.0,6.59,-11.11,-13.65,0,*71
1534615277.8,59650,22.38,74708.5,6.59,-11.15,-13.73,0,*7A
1534615279.0,59651,22.38,74710.0,6.59,-11.11,-13.73,0,*7F
1534615280.2,59652,22.44,74712.0,6.59,-11.11,-13.65,0,*7B
1534615281.4,59653,22.38,74710.0,6.59,-11.11,-13.65,0,*7A
1534615282.65,59654,22.44,74712.8,6.61,-11.07,-13.65,0,*71
1534615283.85,59655,22.38,74708.0,6.59,-11.15,-13.73,0,*7F
1534615285.06,59656,22.38,74708.0,6.59,-11.23,-13.73,0,*79
1534615286.26,59657,22.38,74710.5,6.59,-11.15,-13.73,0,*7D
1534615287.46,59658,22.38,74712.5,6.59,-11.11,-13.73,0,*76
1534615288.68,59659,22.38,74710.3,6.61,-11.15,-13.73,0,*78
1534615289.93,59660,22.44,74712.5,6.59,-11.29,-13.79,0,*7C
1534615291.18,59661,22.38,74710.5,6.59,-11.29,-13.79,0,*7D
1534615292.44,59662,22.38,74714.8,6.59,-11.29,-13.83,0,*7B
1534615293.64,59663,22.38,74712.0,6.59,-11.23,-13.73,0,*7F
1534615294.92,59664,22.44,74714.3,6.57,-11.29,-13.83,0,*73
1534615296.2,59665,22.38,74712.0,6.57,-11.29,-13.83,0,*72
1534615297.48,59666,22.38,74710.8,6.57,-11.29,-13.83,0,*71
1534615298.75,59667,22.38,74714.3,6.57,-11.33,-13.83,0,*7B
1534615300.03,59668,22.38,74712.0,6.57,-11.33,-13.87,0,*70
1534615301.28,59669,22.38,74712.0,6.57,-11.41,-13.87,0,*74
1534615302.55,59670,22.44,74714.5,6.57,-11.33,-13.87,0,*79
1534615303.82,59671,22.38,74714.5,6.57,-11.33,-13.87,0,*78
1534615305.1,59672,22.44,74716.0,6.57,-11.29,-13.83,0,*74
1534615306.38,59673,22.38,74714.3,6.57,-11.29,-13.83,0,*75
1534615307.66,59674,22.38,74714.8,6.57,-11.33,-13.83,0,*79
1534615308.93,59675,22.44,74716.8,6.57,-11.33,-13.87,0,*7C
1534615310.2,59676,22.38,74714.0,6.53,-11.33,-13.83,0,*7F
1534615311.47,59677,22.38,74710.5,6.57,-11.33,-13.83,0,*7A
1534615312.75,59678,22.38,74714.5,6.53,-11.33,-13.83,0,*71
1534615314.01,59679,22.38,74712.8,6.53,-11.37,-13.87,0,*70
1534615315.29,59680,22.38,74714.0,6.57,-11.33,-13.83,0,*72
1534615316.56,59681,22.38,74712.8,6.57,-11.33,-13.83,0,*73
1534615317.83,59682,22.38,74716.8,6.53,-11.37,-13.87,0,*74
1534615319.07,59683,22.38,74718.8,6.53,-11.37,-13.93,0,*70
1534615320.32,59684,22.38,74716.3,6.53,-11.23,-13.87,0,*77
1534615321.57,59685,22.38,74716.0,6.53,-11.33,-13.73,0,*7C
1534615322.84,59686,22.38,74718.5,6.57,-11.33,-13.83,0,*74
1534615324.11,59687,22.38,74714.0,6.53,-11.37,-13.87,0,*71
1534615325.36,59688,22.38,74718.5,6.57,-11.41,-13.83,0,*7F
1534615326.61,59689,22.44,74722.3,6.53,-11.45,-13.83,0,*7E
1534615327.88,59690,22.38,74718.5,6.53,-11.37,-13.87,0,*77
1534615329.13,59691,22.38,74718.5,6.53,-11.23,-13.83,0,*77
1534615330.37,59692,22.38,74714.8,6.57,-11.19,-13.79,0,*7C
1534615331.64,59693,22.38,74718.0,6.53,-11.33,-13.83,0,*74
1534615332.91,59694,22.38,74714.5,6.57,-11.33,-13.79,0,*72
1534615334.18,59695,22.38,74716.0,6.53,-11.51,-14.01,0,*7B
1534615335.47,59696,22.38,74714.3,6.57,-11.59,-13.97,0,*7C
1534615336.71,59697,22.44,74722.8,6.53,-11.59,-13.93,0,*7D
1534615337.97,59698,22.38,74718.8,6.57,-11.41,-13.97,0,*7B
1534615339.22,59699,22.38,74718.3,6.53,-11.45,-13.87,0,*7B
1534615340.5,59700,22.38,74716.3,6.53,-11.51,-14.01,0,*76
1534615341.72,59701,22.38,74718.5,6.53,-11.45,-13.93,0,*7E
1534615343.0,59702,22.38,74714.8,6.53,-11.59,-14.01,0,*7C
1534615344.28,59703,22.38,74714.0,6.53,-11.63,-14.05,0,*70
1534615345.56,59704,22.38,74716.3,6.53,-11.63,-14.05,0,*77
1534615346.83,59705,22.38,74718.5,6.53,-11.59,-14.01,0,*7B
1534615348.11,59706,22.38,74718.8,6.53,-11.59,-14.01,0,*78
1534615349.39,59707,22.38,74718.8,6.53,-11.63,-14.01,0,*70
1534615350.64,59708,22.38,74716.0,6.53,-11.59,-13.93,0,*7A
1534615351.92,59709,22.38,74714.0,6.53,-11.59,-14.01,0,*77
1534615353.19,59710,22.38,74718.8,6.53,-11.51,-14.01,0,*77
1534615354.47,59711,22.38,74716.3,6.51,-11.73,-14.05,0,*70
1534615355.74,59712,22.38,74716.5,6.53,-11.73,-14.05,0,*71
1534615356.99,59713,22.38,74718.5,6.51,-11.67,-14.11,0,*72
1534615358.26,59714,22.38,74716.8,6.51,-11.59,-14.05,0,*7D
1534615359.55,59715,22.38,74716.3,6.51,-11.59,-14.01,0,*78
1534615360.8,59716,22.38,74718.8,6.49,-11.63,-13.97,0,*73
1534615362.06,59717,22.38,74720.3,6.51,-11.45,-13.83,0,*7A
1534615363.28,59718,22.38,74718.3,6.49,-11.55,-13.93,0,*7C
1534615364.56,59719,22.38,74720.0,6.51,-11.59,-14.01,0,*74
1534615365.8,59720,22.38,74718.5,6.51,-11.51,-13.93,0,*7A
1534615367.09,59721,22.38,74718.5,6.51,-11.59,-14.01,0,*7F
1534615368.34,59722,22.38,74720.3,6.49,-11.67,-13.97,0,*70
1534615369.6,59723,22.38,74722.0,6.49,-11.63,-13.97,0,*75
1534615370.88,59724,22.38,74722.0,6.51,-11.63,-14.01,0,*73
1534615372.13,59725,22.38,74718.3,6.51,-11.59,-13.93,0,*77
1534615373.39,59726,22.38,74718.3,6.49,-11.63,-13.97,0,*70
1534615374.67,59727,22.38,74720.3,6.51,-11.59,-14.01,0,*79
1534615375.92,59728,22.38,74720.5,6.49,-11.63,-13.97,0,*7E
1534615377.19,59729,22.38,74718.8,6.51,-11.51,-13.87,0,*76
1534615378.44,59730,22.38,74722.5,6.49,-11.51,-13.87,0,*77
1534615379.68,59731,22.38,74720.0,6.51,-11.33,-13.69,0,*7B
1534615380.93,59732,22.38,74724.5,6.51,-11.33,-13.73,0,*73
1534615382.15,59733,22.38,74724.0,6.49,-11.41,-13.79,0,*74
1534615383.39,59734,22.38,74724.3,6.51,-11.45,-13.73,0,*74
1534615384.66,59735,22.38,74724.0,6.51,-11.37,-13.83,0,*7F
1534615385.88,59736,22.38,74720.8,6.49,-11.37,-13.73,0,*7A
1534615387.13,59737,22.38,74726.3,6.51,-11.45,-13.83,0,*78
1534615388.38,59738,22.38,74722.3,6.51,-11.37,-13.73,0,*7D
1534615389.62,59739,22.38,74724.0,6.51,-11.37,-13.69,0,*77
1534615390.87,59740,22.38,74722.0,6.53,-11.37,-13.73,0,*70
1534615392.11,59741,22.38,74716.5,6.51,-11.51,-13.93,0,*7D
1534615393.39,59742,22.38,74716.3,6.51,-11.51,-14.01,0,*72
1534615394.64,59743,22.38,74720.3,6.53,-11.63,-13.93,0,*7C
1534615395.89,59744,22.38,74722.5,6.51,-11.63,-13.93,0,*79
1534615397.13,59745,22.38,74722.8,6.53,-11.59,-13.93,0,*73
1534615398.38,59746,22.38,74720.0,6.53,-11.73,-14.15,0,*71
1534615399.65,59747,22.38,74726.0,6.51,-11.73,-14.05,0,*73
1534615400.93,59748,22.38,74722.8,6.51,-11.73,-14.05,0,*7C
1534615402.2,59749,22.38,74720.3,6.51,-11.73,-14.05,0,*7D
1534615403.46,59750,22.38,74718.3,6.51,-11.77,-14.15,0,*70
1534615404.71,59751,22.38,74720.0,6.51,-11.77,-14.15,0,*71
1534615405.98,59752,22.38,74722.3,6.51,-11.73,-14.05,0,*77
1534615407.23,59753,22.38,74724.0,6.51,-11.59,-13.93,0,*76
1534615408.51,59754,22.38,74722.8,6.51,-11.59,-13.83,0,*70
1534615409.77,59755,22.38,74726.0,6.53,-11.51,-13.87,0,*7F
1534615411.05,59756,22.38,74722.3,6.53,-11.63,-14.01,0,*74
1534615412.33,59757,22.38,74726.8,6.53,-11.73,-14.01,0,*74
1534615413.61,59758,22.38,74720.8,6.51,-11.77,-14.01,0,*7D
1534615414.88,59759,22.38,74722.0,6.51,-11.73,-14.05,0,*7C
1534615416.14,59760,22.38,74726.3,6.51,-11.89,-14.15,0,*72
1534615417.37,59761,22.38,74722.3,6.49,-11.93,-14.23,0,*74
1534615418.62,59762,22.38,74724.8,6.51,-11.97,-14.29,0,*70
1534615419.87,59763,22.38,74726.5,6.53,-11.89,-14.19,0,*7F
1534615421.1,59764,22.38,74720.0,6.49,-11.93,-14.33,0,*70
1534615422.35,59765,22.38,74722.0,6.51,-11.97,-14.19,0,*74
1534615423.6,59766,22.38,74722.5,6.51,-11.89,-14.19,0,*78
1534615424.85,59767,22.38,74724.3,6.51,-11.89,-14.29,0,*7A
1534615426.11,59768,22.38,74724.8,6.51,-11.89,-14.19,0,*76
1534615427.36,59769,22.38,74726.8,6.51,-11.97,-14.29,0,*7B
1534615428.58,59770,22.38,74718.3,6.51,-12.03,-14.29,0,*7D
1534615429.82,59771,22.38,74720.5,6.49,-11.93,-14.23,0,*75
1534615431.07,59772,22.38,74722.5,6.51,-11.77,-14.15,0,*70
1534615432.27,59773,22.38,74720.0,6.49,-12.03,-14.19,0,*74
1534615433.52,59774,22.38,74722.5,6.51,-11.85,-14.15,0,*7B
1534615434.77,59775,22.38,74718.0,6.51,-11.85,-14.15,0,*7A
1534615435.97,59776,22.38,74720.3,6.49,-12.03,-14.15,0,*7D
1534615437.17,59777,22.38,74724.5,6.49,-12.03,-14.33,0,*78
1534615438.43,59778,22.38,74720.0,6.49,-12.07,-14.47,0,*70
1534615439.71,59779,22.38,74720.5,6.51,-11.97,-14.47,0,*72
1534615440.91,59780,22.38,74722.0,6.49,-12.03,-14.37,0,*74
1534615442.16,59781,22.38,74720.5,6.49,-12.07,-14.47,0,*76
1534615443.42,59782,22.38,74722.3,6.49,-12.07,-14.47,0,*75
1534615444.65,59783,22.38,74720.8,6.49,-12.07,-14.37,0,*73
1534615445.9,59784,22.38,74726.3,6.49,-12.11,-14.47,0,*74
1534615447.13,59785,22.38,74726.8,6.49,-12.07,-14.37,0,*75
1534615448.36,59786,22.38,74724.0,6.49,-12.07,-14.37,0,*76
1534615449.61,59787,22.38,74722.5,6.49,-12.11,-14.51,0,*70
1534615450.86,59788,22.38,74720.3,6.49,-12.11,-14.47,0,*78
1534615452.12,59789,22.38,74720.0,6.49,-12.11,-14.47,0,*79
1534615453.38,59790,22.38,74722.3,6.49,-12.11,-14.47,0,*71
1534615454.65,59791,22.38,74720.5,6.47,-12.15,-14.43,0,*7E
1534615455.9,59792,22.38,74718.8,6.47,-12.07,-14.29,0,*72
1534615457.14,59793,22.38,74724.8,6.47,-12.11,-14.37,0,*7B
1534615458.4,59794,22.38,74722.0,6.49,-12.07,-14.47,0,*72
1534615459.66,59795,22.38,74720.8,6.49,-12.11,-14.47,0,*74
1534615460.91,59796,22.38,74718.3,6.47,-12.11,-14.37,0,*7E
1534615462.16,59797,22.38,74716.0,6.49,-12.07,-14.47,0,*71
1534615463.42,59798,22.38,74712.3,6.47,-12.25,-14.51,0,*77
1534615464.67,59799,22.38,74714.8,6.47,-12.25,-14.51,0,*76
1534615465.92,59800,22.38,74712.0,6.45,-12.15,-14.55,0,*7C
1534615467.2,59801,22.38,74718.8,6.47,-12.15,-14.51,0,*7B
1534615468.45,59802,22.38,74720.5,6.47,-12.25,-14.51,0,*7B
1534615469.65,59803,22.38,74722.0,6.45,-12.25,-14.65,0,*7F
1534615470.88,59804,22.38,74724.5,6.45,-12.25,-14.55,0,*7B
1534615472.15,59805,22.38,74724.8,6.47,-12.11,-14.43,0,*78
1534615473.37,59806,22.38,74720.8,6.45,-12.07,-14.37,0,*7D
1534615474.64,59807,22.38,74720.5,6.47,-12.11,-14.43,0,*7A
1534615475.87,59808,22.38,74718.5,6.45,-12.11,-14.23,0,*71
1534615477.14,59809,22.38,74722.0,6.47,-12.11,-14.51,0,*77
1534615478.42,59810,22.38,74720.5,6.47,-12.15,-14.51,0,*7B
1534615479.64,59811,22.38,74720.3,6.45,-12.15,-14.37,0,*78
1534615480.87,59812,22.38,74716.8,6.49,-12.11,-14.33,0,*77
1534615482.14,59813,22.38,74718.8,6.47,-12.11,-14.43,0,*7F
1534615483.36,59814,22.38,74718.0,6.45,-11.97,-14.29,0,*7B
1534615484.61,59815,22.38,74714.3,6.47,-12.07,-14.23,0,*78
1534615485.87,59816,22.38,74716.0,6.47,-11.93,-14.15,0,*70
1534615487.12,59817,22.38,74714.0,6.47,-12.07,-14.29,0,*70
1534615488.37,59818,22.38,74716.8,6.49,-12.07,-14.47,0,*79
1534615489.58,59819,22.38,74714.5,6.49,-12.21,-14.61,0,*78
1534615490.81,59820,22.38,74712.8,6.47,-12.29,-14.69,0,*7C
1534615492.03,59821,22.38,74714.5,6.47,-12.39,-14.69,0,*7C
1534615493.26,59822,22.38,74714.0,6.47,-12.25,-14.65,0,*7E
1534615494.46,59823,22.38,74710.5,6.45,-12.29,-14.65,0,*71
1534615495.71,59824,22.38,74712.8,6.47,-12.39,-14.79,0,*78
1534615496.93,59825,22.38,74704.3,6.45,-12.43,-14.79,0,*76
1534615498.13,59826,22.38,74706.5,6.45,-12.43,-14.89,0,*7A
1534615499.35,59827,22.38,74704.3,6.45,-12.43,-14.55,0,*7A
1534615500.57,59828,22.38,74710.5,6.45,-12.43,-14.79,0,*7B
1534615501.78,59829,22.38,74710.5,6.45,-12.29,-14.65,0,*7B
1534615503.0,59830,22.38,74712.0,6.47,-12.43,-14.69,0,*71
1534615504.23,59831,22.38,74712.3,6.49,-12.47,-14.79,0,*7B
1534615505.45,59832,22.38,74712.3,6.45,-12.43,-14.79,0,*70
1534615506.7,59833,22.38,74712.0,6.47,-12.43,-14.79,0,*73
1534615507.94,59834,22.38,74712.3,6.47,-12.53,-14.69,0,*74
1534615509.17,59835,22.38,74720.5,6.45,-12.53,-14.89,0,*79
1534615510.4,59836,22.38,74718.8,6.45,-12.57,-14.89,0,*7E
1534615511.63,59837,22.38,74718.8,6.45,-12.65,-14.89,0,*7E
1534615512.9,59838,22.38,74712.8,6.47,-12.57,-14.83,0,*78
1534615514.12,59839,22.38,74718.5,6.45,-12.43,-14.83,0,*7E
1534615515.32,59840,22.38,74720.0,6.45,-12.29,-14.69,0,*78
1534615516.54,59841,22.38,74722.3,6.45,-12.39,-14.55,0,*77
1534615517.77,59842,22.38,74720.0,6.45,-12.29,-14.79,0,*7B
1534615519.0,59843,22.38,74722.0,6.47,-12.39,-14.65,0,*74
1534615520.22,59844,22.38,74716.0,6.45,-12.39,-14.79,0,*7C
1534615521.45,59845,22.38,74722.3,6.45,-12.53,-14.89,0,*7E
1534615522.67,59846,22.38,74718.8,6.45,-12.43,-14.83,0,*76
1534615523.92,59847,22.38,74716.5,6.45,-12.53,-14.83,0,*76
1534615525.15,59848,22.38,74718.5,6.45,-12.57,-14.89,0,*77
1534615526.37,59849,22.38,74718.0,6.45,-12.57,-14.89,0,*76
1534615527.63,59850,22.38,74722.5,6.45,-12.57,-14.83,0,*74
1534615528.88,59851,22.38,74718.0,6.45,-12.53,-14.83,0,*71
1534615530.13,59852,22.38,74716.8,6.45,-12.57,-14.97,0,*73
1534615531.38,59853,22.38,74720.5,6.45,-12.53,-14.79,0,*76
1534615532.61,59854,22.38,74718.5,6.43,-12.47,-14.89,0,*7D
1534615533.86,59855,22.38,74720.5,6.45,-12.53,-14.79,0,*70
1534615535.09,59856,22.38,74720.0,6.45,-12.57,-14.89,0,*78
1534615536.33,59857,22.38,74718.3,6.45,-12.65,-15.01,0,*79
1534615537.58,59858,22.38,74720.5,6.45,-12.65,-14.97,0,*78
1534615538.83,59859,22.38,74724.8,6.47,-12.43,-14.79,0,*7F
1534615540.03,59860,22.38,74720.8,6.45,-12.39,-14.65,0,*77
1534615541.28,59861,22.38,74726.3,6.43,-12.43,-14.75,0,*7C
1534615542.47,59862,22.38,74726.3,6.45,-12.39,-14.69,0,*79
1534615543.75,59863,22.38,74724.3,6.47,-12.53,-14.83,0,*72
1534615544.98,59864,22.38,74726.3,6.45,-12.53,-14.89,0,*7D
1534615546.25,59865,22.38,74722.0,6.47,-12.57,-14.83,0,*70
1534615547.48,59866,22.38,74718.0,6.45,-12.53,-14.89,0,*7F
1534615548.73,59867,22.38,74716.5,6.45,-12.79,-15.01,0,*77
1534615549.98,59868,22.38,74718.0,6.43,-12.83,-15.07,0,*7D
1534615551.26,59869,22.38,74716.3,6.43,-12.75,-15.01,0,*73
1534615552.51,59870,22.38,74718.0,6.43,-12.75,-15.07,0,*7D
1534615553.78,59871,22.38,74716.3,6.43,-12.83,-15.01,0,*73
1534615555.01,59872,22.38,74716.0,6.43,-12.89,-15.15,0,*7F
1534615556.26,59873,22.38,74718.8,6.43,-12.75,-15.07,0,*7E
1534615557.51,59874,22.38,74722.3,6.43,-12.83,-15.07,0,*70
1534615558.71,59875,22.38,74720.8,6.41,-12.89,-15.07,0,*79
1534615559.96,59876,22.38,74722.0,6.43,-12.83,-15.07,0,*72
1534615561.21,59877,22.38,74716.3,6.41,-12.83,-15.01,0,*77
1534615562.43,59878,22.38,74714.5,6.41,-12.83,-15.07,0,*7E
1534615563.63,59879,22.38,74718.8,6.41,-12.97,-15.07,0,*7A
1534615564.86,59880,22.38,74722.8,6.41,-12.89,-15.01,0,*75
1534615566.06,59881,22.38,74720.8,6.41,-12.97,-15.07,0,*7D
1534615567.29,59882,22.38,74722.3,6.41,-12.89,-15.21,0,*75
1534615568.49,59883,22.38,74720.3,6.41,-12.97,-15.15,0,*7C
1534615569.74,59884,22.38,74716.3,6.43,-12.75,-15.07,0,*76
1534615571.0,59885,22.38,74718.0,6.41,-12.71,-14.93,0,*7D
1534615572.24,59886,22.38,74718.5,6.41,-12.83,-14.93,0,*73
1534615573.47,59887,22.38,74720.5,6.41,-12.83,-15.07,0,*7E
1534615574.72,59888,22.38,74720.8,6.41,-12.83,-15.01,0,*77
1534615575.97,59889,22.38,74722.3,6.41,-12.75,-15.01,0,*7F
1534615577.22,59890,22.38,74720.8,6.41,-12.75,-14.93,0,*7D
1534615578.45,59891,22.38,74720.5,6.41,-12.83,-15.07,0,*79
1534615579.68,59892,22.38,74718.8,6.41,-12.75,-15.07,0,*73
1534615580.88,59893,22.38,74724.8,6.41,-12.89,-15.07,0,*71
1534615582.08,59894,22.38,74724.3,6.41,-12.97,-15.15,0,*7A
1534615583.29,59895,22.38,74726.5,6.41,-12.97,-15.15,0,*7B
1534615584.54,59896,22.38,74722.8,6.39,-12.93,-15.21,0,*74
1534615585.8,59897,22.38,74722.3,6.39,-12.93,-15.21,0,*75
1534615587.06,59898,22.38,74718.8,6.39,-13.01,-15.25,0,*74
1534615588.32,59899,22.38,74722.3,6.39,-13.01,-15.25,0,*75
1534615589.58,59900,22.38,74720.5,6.39,-13.01,-15.25,0,*74
1534615590.79,59901,22.38,74722.8,6.37,-12.97,-15.25,0,*75
1534615592.0,59902,22.38,74720.5,6.41,-12.89,-15.15,0,*7B
1534615593.26,59903,22.38,74718.0,6.39,-13.01,-15.25,0,*77
1534615594.51,59904,22.38,74718.5,6.39,-12.93,-15.21,0,*7E
1534615595.77,59905,22.38,74712.0,6.39,-12.93,-15.21,0,*7F
1534615597.02,59906,22.38,74712.5,6.39,-12.93,-15.21,0,*7C
1534615598.25,59907,22.38,74716.3,6.39,-12.93,-15.11,0,*7E
1534615599.51,59908,22.38,74720.0,6.39,-12.93,-15.21,0,*72
1534615600.76,59909,22.38,74716.5,6.39,-12.93,-15.21,0,*73
1534615602.02,59910,22.38,74720.5,6.39,-12.93,-15.21,0,*7B
1534615603.25,59911,22.38,74718.8,6.39,-12.89,-15.11,0,*72
1534615604.5,59912,22.38,74712.3,6.39,-12.93,-15.21,0,*79
1534615605.78,59913,22.38,74714.8,6.39,-13.01,-15.21,0,*72
1534615607.01,59914,22.38,74708.8,6.39,-12.89,-15.11,0,*77
1534615608.24,59915,22.38,74712.0,6.39,-12.89,-15.11,0,*76
1534615609.44,59916,22.38,74718.0,6.37,-12.93,-15.15,0,*74
1534615610.72,59917,22.38,74720.8,6.39,-13.01,-15.21,0,*76
1534615611.92,59918,22.38,74722.8,6.37,-13.07,-15.25,0,*75
1534615613.2,59919,22.38,74722.3,6.39,-13.01,-15.21,0,*78
1534615614.41,59920,22.38,74718.8,6.37,-13.07,-15.25,0,*7E
1534615615.67,59921,22.38,74720.5,6.39,-13.01,-15.25,0,*77
1534615616.95,59922,22.38,74716.8,6.39,-12.79,-15.21,0,*7E
1534615618.2,59923,22.38,74718.0,6.39,-13.07,-15.35,0,*72
1534615619.43,59924,22.38,74716.3,6.37,-13.11,-15.43,0,*7D
1534615620.63,59925,22.38,74712.5,6.37,-13.07,-15.25,0,*7B
1534615621.84,59926,22.38,74718.0,6.37,-13.07,-15.29,0,*74
1534615623.06,59927,22.38,74716.8,6.37,-13.15,-15.43,0,*7A
1534615624.3,59928,22.38,74716.8,6.39,-13.11,-15.25,0,*7F
1534615625.56,59929,22.38,74718.5,6.39,-13.07,-15.39,0,*74
1534615626.78,59930,22.38,74718.8,6.37,-13.11,-15.43,0,*78
1534615628.02,59931,22.38,74716.5,6.39,-13.07,-15.25,0,*70
1534615629.22,59932,22.38,74716.5,6.37,-13.11,-15.29,0,*76
1534615630.45,59933,22.38,74716.8,6.37,-13.11,-15.43,0,*7B
1534615631.71,59934,22.38,74714.8,6.39,-13.11,-15.39,0,*7F
1534615632.94,59935,22.38,74712.3,6.37,-13.11,-15.39,0,*70
1534615634.17,59936,22.38,74716.3,6.37,-13.11,-15.39,0,*73
1534615635.4,59937,22.38,74714.8,6.37,-13.11,-15.39,0,*72
1534615636.63,59938,22.38,74720.5,6.37,-13.11,-15.39,0,*7D
1534615637.83,59939,22.38,74718.8,6.37,-13.11,-15.29,0,*7D
1534615639.06,59940,22.38,74716.8,6.37,-13.07,-15.35,0,*79
1534615640.28,59941,22.38,74714.5,6.37,-13.11,-15.43,0,*7E
1534615641.51,59942,22.38,74714.8,6.37,-13.11,-15.39,0,*70
1534615642.74,59943,22.38,74720.8,6.37,-13.11,-15.39,0,*71
1534615643.95,59944,22.38,74718.3,6.37,-13.07,-15.29,0,*70
1534615645.18,59945,22.38,74726.0,6.37,-13.23,-15.43,0,*7B
1534615646.41,59946,22.38,74722.3,6.37,-13.11,-15.39,0,*74
1534615647.66,59947,22.38,74724.0,6.35,-13.15,-15.43,0,*7E
1534615648.89,59948,22.38,74724.8,6.35,-13.15,-15.53,0,*70
1534615650.13,59949,22.38,74722.3,6.35,-13.07,-15.29,0,*7F
1534615651.37,59950,22.38,74716.5,6.35,-12.97,-15.25,0,*73
1534615652.6,59951,22.38,74716.5,6.35,-13.07,-15.25,0,*7A
1534615653.83,59952,22.38,74718.5,6.37,-13.07,-15.39,0,*76
1534615655.07,59953,22.38,74718.0,6.35,-13.11,-15.25,0,*7F
1534615656.3,59954,22.38,74720.8,6.35,-13.11,-15.25,0,*78
1534615657.56,59955,22.38,74722.3,6.35,-13.11,-15.39,0,*74
1534615658.81,59956,22.38,74720.0,6.35,-13.15,-15.43,0,*7E
1534615660.08,59957,22.38,74724.0,6.31,-13.29,-15.49,0,*7E
1534615661.33,59958,22.38,74722.8,6.35,-13.15,-15.43,0,*70
1534615662.59,59959,22.38,74722.3,6.35,-13.15,-15.43,0,*71
1534615663.87,59960,22.38,74718.8,6.35,-13.29,-15.57,0,*71
1534615665.1,59961,22.38,74718.5,6.31,-13.43,-15.71,0,*7C
1534615666.33,59962,22.38,74720.5,6.37,-13.29,-15.53,0,*75
1534615667.59,59963,22.38,74722.5,6.35,-13.11,-15.39,0,*71
1534615668.85,59964,22.38,74724.5,6.31,-13.19,-15.57,0,*72
1534615670.13,59965,22.38,74716.8,6.35,-13.37,-15.57,0,*7B
1534615671.39,59966,22.38,74720.5,6.35,-13.29,-15.53,0,*73
1534615672.64,59967,22.38,74724.3,6.31,-13.33,-15.63,0,*7E
1534615673.89,59968,22.38,74724.3,6.35,-13.15,-15.43,0,*73
1534615675.13,59969,22.38,74720.0,6.31,-13.19,-15.49,0,*70
1534615676.39,59970,22.38,74722.0,6.31,-13.19,-15.43,0,*72
1534615677.65,59971,22.38,74722.5,6.35,-13.15,-15.39,0,*76
1534615678.9,59972,22.38,74720.8,6.31,-13.15,-15.43,0,*7C
1534615680.16,59973,22.38,74722.0,6.35,-13.15,-15.43,0,*79
1534615681.39,59974,22.38,74722.5,6.31,-13.15,-15.49,0,*70
1534615682.67,59975,22.38,74722.5,6.31,-13.33,-15.57,0,*7A
1534615683.93,59976,22.38,74720.5,6.31,-13.19,-15.43,0,*74
1534615685.17,59977,22.38,74722.3,6.31,-13.19,-15.49,0,*7F
1534615686.42,59978,22.38,74720.0,6.35,-13.15,-15.39,0,*7F
1534615687.69,59979,22.38,74722.3,6.31,-13.29,-15.49,0,*72
1534615688.97,59980,22.31,74722.5,6.31,-13.29,-15.43,0,*7E
1534615690.23,59981,22.38,74724.3,6.31,-13.19,-15.35,0,*7D
1534615691.47,59982,22.38,74726.5,6.31,-13.19,-15.49,0,*75
1534615692.7,59983,22.38,74724.0,6.31,-13.43,-15.71,0,*70
1534615693.92,59984,22.38,74726.0,6.35,-13.43,-15.67,0,*74
1534615695.15,59985,22.38,74722.5,6.31,-13.47,-15.63,0,*71
1534615696.38,59986,22.38,74724.5,6.31,-13.47,-15.71,0,*71
1534615697.63,59987,22.38,74722.5,6.31,-13.61,-15.75,0,*70
1534615698.86,59988,22.38,74724.0,6.31,-13.47,-15.71,0,*7F
1534615700.12,59989,22.38,74722.3,6.31,-13.29,-15.49,0,*7D
1534615701.39,59990,22.38,74722.8,6.31,-13.29,-15.49,0,*75
1534615702.65,59991,22.38,74722.8,6.31,-13.29,-15.49,0,*74
1534615703.91,59992,22.38,74722.3,6.31,-13.29,-15.49,0,*77
1534615705.19,59993,22.38,74720.5,6.31,-13.33,-15.57,0,*72